Detroit, MI

5:04 AM EST on February 09, 2016 (GMT -0500)
Detroit City

Weather History for KDET - December, 2013

Change the Weather History Date:

Wednesday, December 4, 2013

  Actual Average Record
Temperature  
Mean Temperature 46 °F -  
Max Temperature 57 °F 37 °F 62 °F (1953)
Min Temperature 37 °F 27 °F 9 °F (2002)
Degree Days  
Heating Degree Days 19    
Moisture  
Dew Point 42 °F    
Average Humidity 86    
Maximum Humidity 97    
Minimum Humidity 76    
Precipitation  
Precipitation 0.00 in - - ()
Sea Level Pressure  
Sea Level Pressure 29.82 in    
Wind  
Wind Speed 4 mph (SE)    
Max Wind Speed 14 mph    
Max Gust Speed 23 mph    
Visibility 6 miles    
Events Rain    
Averages and records for this station are not official NWS values.
T = Trace of Precipitation, MM = Missing Value Source: NWS Daily Summary

Daily Weather History Graph

Daily Weather History Graph

Search for Another Location

Airport or City:

Trip Planner

Search our weather history database for the weather conditions in past years. The results will help you decide how hot, cold, wet, or windy it might be!

Date:

Astronomy

Dec. 04, 2013 Rise Set
Actual Time 7:45 AM EST 4:59 PM EST
Civil Twilight 7:13 AM EST 5:31 PM EST
Nautical Twilight 6:38 AM EST 6:06 PM EST
Astronomical Twilight 6:04 AM EST 6:40 PM EST
Moon 9:11 AM EST (12/4) 7:09 PM EST (12/4)
Length of Visible Light 10h 17m
Length of Day
9h 14m
Waxing Crescent, 4% of the Moon is Illuminated
Dec 4
Waxing Crescent
Dec 9
First Quarter
Dec 17
Full
Dec 25
Last Quarter
Jan 1
New

Hourly Weather History & Observations

Time (EST) Temp. Windchill Dew Point Humidity Pressure Visibility Wind Dir Wind Speed Gust Speed Precip Events Conditions
12:07 AM 39.2 °F - 37.4 °F 93% 29.88 in 6.0 mi Calm Calm - N/A   Overcast
12:31 AM 39.2 °F 37.0 °F 37.4 °F 93% 29.88 in 6.0 mi East 3.5 mph - 0.00 in Rain Light Rain
12:53 AM 39.9 °F - 37.0 °F 89% 29.90 in 5.0 mi Calm Calm - 0.00 in   Overcast
1:14 AM 39.2 °F 37.0 °F 37.4 °F 93% 29.87 in 5.0 mi East 3.5 mph - N/A   Overcast
1:32 AM 39.2 °F 35.0 °F 37.4 °F 93% 29.86 in 5.0 mi ESE 5.8 mph - N/A   Overcast
1:53 AM 37.9 °F 34.4 °F 36.0 °F 93% 29.88 in 5.0 mi ESE 4.6 mph - N/A   Mostly Cloudy
2:07 AM 39.2 °F 37.0 °F 37.4 °F 93% 29.86 in 5.0 mi East 3.5 mph - N/A   Mostly Cloudy
2:53 AM 39.9 °F 35.8 °F 37.9 °F 93% 29.86 in 5.0 mi ESE 5.8 mph - N/A   Overcast
3:14 AM 39.2 °F - 37.4 °F 93% 29.86 in 5.0 mi Calm Calm - N/A   Overcast
3:53 AM 39.9 °F - 37.9 °F 93% 29.88 in 4.0 mi Calm Calm - N/A   Overcast
4:53 AM 39.0 °F 36.8 °F 37.0 °F 93% 29.89 in 4.0 mi ENE 3.5 mph - N/A   Overcast
5:53 AM 39.0 °F - 37.0 °F 93% 29.91 in 4.0 mi Calm Calm - N/A   Overcast
6:53 AM 39.9 °F 36.7 °F 37.9 °F 93% 29.90 in 4.0 mi ESE 4.6 mph - N/A   Overcast
7:53 AM 39.9 °F 36.7 °F 39.0 °F 97% 29.91 in 4.0 mi ESE 4.6 mph - N/A   Overcast
8:53 AM 42.1 °F - 39.0 °F 89% 29.92 in 4.0 mi Calm Calm - N/A   Overcast
9:53 AM 44.1 °F 42.5 °F 39.9 °F 85% 29.92 in 4.0 mi SE 3.5 mph - N/A   Overcast
10:53 AM 46.0 °F 43.1 °F 42.1 °F 86% 29.91 in 5.0 mi SE 5.8 mph - N/A   Overcast
11:53 AM 48.0 °F - 43.0 °F 83% 29.87 in 6.0 mi SE 5.8 mph - N/A   Haze
12:53 PM 50.0 °F - 45.0 °F 83% 29.84 in 7.0 mi SE 9.2 mph - N/A   Scattered Clouds
1:53 PM 52.0 °F - 46.0 °F 80% 29.82 in 7.0 mi SE 9.2 mph - N/A   Clear
2:30 PM 51.8 °F - 44.6 °F 76% 29.81 in 7.0 mi ESE 4.6 mph - N/A   Overcast
2:53 PM 52.0 °F - 46.0 °F 80% 29.81 in 8.0 mi SSE 8.1 mph - N/A   Overcast
3:00 PM 51.8 °F - 46.4 °F 82% 29.80 in 8.0 mi SSE 9.2 mph - N/A   Overcast
3:53 PM 50.0 °F - 45.0 °F 83% 29.80 in 7.0 mi ESE 8.1 mph - N/A   Overcast
4:53 PM 48.9 °F - 43.0 °F 80% 29.78 in 7.0 mi ESE 11.5 mph - N/A   Mostly Cloudy
5:33 PM 48.2 °F - 42.8 °F 82% 29.75 in 9.0 mi ESE 9.2 mph - N/A   Overcast
5:53 PM 48.9 °F - 43.0 °F 80% 29.76 in 9.0 mi ESE 9.2 mph - N/A   Overcast
6:53 PM 48.9 °F - 44.1 °F 83% 29.75 in 8.0 mi SE 6.9 mph - 0.00 in   Overcast
7:53 PM 54.0 °F - 48.0 °F 80% 29.73 in 10.0 mi SSE 11.5 mph 21.9 mph 0.00 in   Overcast
8:19 PM 53.6 °F - 46.4 °F 77% 29.70 in 9.0 mi SSE 11.5 mph - N/A   Overcast
8:53 PM 54.0 °F - 46.9 °F 77% 29.70 in 10.0 mi SSE 10.4 mph - N/A   Mostly Cloudy
9:53 PM 55.0 °F - 48.0 °F 77% 29.69 in 10.0 mi South 12.7 mph 20.7 mph N/A   Overcast
10:53 PM 55.9 °F - 48.9 °F 77% 29.66 in 10.0 mi South 13.8 mph 20.7 mph N/A   Overcast
11:53 PM 57.0 °F - 50.0 °F 77% 29.65 in 10.0 mi SSW 13.8 mph 23.0 mph N/A   Overcast